User: anonymous   Login
Location: Theydon Bois
(51.6750°N, 0.1050°E)
Time: 10:33:55
(UTC+00:00)
Language:

BREEZE-M DEB (TANK) - Orbit

View from above orbital plane
View from above orbital plane
View from above satellite
View from above satellite

Ground track
Ground track

The orbit data is extracted from the following two-line orbital elements,

1 31863U 07032B   17345.48265897 +.00000227 +00000-0 +17549-3 0  9992
2 31863 045.9243 175.2931 4966046 172.9945 198.1108 05.52142254209278
Epoch (UTC): 11 December 2017 11:35:01
Eccentricity: 0.4966046
inclination: 45.9243°
perigee height: 428 km
apogee height: 13858 km
right ascension of ascending node: 175.2931°
argument of perigee: 172.9945°
revolutions per day: 5.52142254
mean anomaly at epoch: 198.1108°
orbit number at epoch: 20927

The dashed part of the orbit path shows where the satellite is in the earth's shadow,  

DLR